• In Uzbekistan
  • List of Countries
  • For 7 days
  • Water Temperature
  • Satellite Maps
  • Weather Map
  • Weather Widgets
  • user-avatar
    Login

    Hourly Weather Holguin

    Today, 23 September, Sunday

    Time Temperature Precipitation Wind Pressure Humidity
    00:00 +26°C° 0 mm 3 mps 747 mmHg 85%
    01:00 +25°C° 0 mm 3 mps 747 mmHg 88%
    02:00 +25°C° 0 mm 3 mps 747 mmHg 90%
    03:00 +25°C° 0 mm 3 mps 746 mmHg 91%
    04:00 +25°C° 0 mm 3 mps 746 mmHg 92%
    05:00 +25°C° 0 mm 3 mps 746 mmHg 89%
    06:00 +26°C° 0 mm 3 mps 746 mmHg 86%
    07:00 +27°C° 0 mm 3 mps 747 mmHg 81%
    08:00 +29°C° 0 mm 3 mps 747 mmHg 71%
    09:00 +32°C° 0 mm 4 mps 747 mmHg 62%
    10:00 +34°C° 0 mm 4 mps 747 mmHg 53%
    11:00 +35°C° 0 mm 4 mps 747 mmHg 50%
    12:00 +36°C° 0 mm 4 mps 747 mmHg 47%
    13:00 +37°C° 0 mm 5 mps 747 mmHg 44%
    14:00 +36°C° 0 mm 5 mps 746 mmHg 48%
    15:00 +35°C° 0 mm 5 mps 746 mmHg 52%
    16:00 +34°C° 0 mm 6 mps 745 mmHg 56%
    17:00 +32°C° 0 mm 5 mps 746 mmHg 64%
    18:00 +30°C° 0 mm 5 mps 746 mmHg 72%
    19:00 +28°C° 0 mm 4 mps 746 mmHg 80%
    20:00 +28°C° 0 mm 4 mps 746 mmHg 82%
    21:00 +27°C° 0 mm 4 mps 747 mmHg 84%
    22:00 +27°C° 0 mm 4 mps 747 mmHg 87%
    23:00 +27°C° 0 mm 3 mps 747 mmHg 88%

    Tomorrow, 24 September, Monday

    Time Temperature Precipitation Wind Pressure Humidity
    00:00 +26°C° 0 mm 3 mps 747 mmHg 90%
    01:00 +26°C° 0 mm 3 mps 747 mmHg 91%
    02:00 +26°C° 0 mm 3 mps 746 mmHg 92%
    03:00 +25°C° 0 mm 3 mps 746 mmHg 92%
    04:00 +25°C° 0 mm 3 mps 746 mmHg 93%
    05:00 +26°C° 0 mm 3 mps 746 mmHg 90%
    06:00 +26°C° 0 mm 3 mps 747 mmHg 87%
    07:00 +27°C° 0 mm 3 mps 747 mmHg 84%
    08:00 +29°C° 0 mm 4 mps 748 mmHg 74%
    09:00 +32°C° 0 mm 4 mps 748 mmHg 64%
    10:00 +35°C° 0 mm 5 mps 748 mmHg 54%
    11:00 +35°C° 0 mm 5 mps 748 mmHg 52%
    12:00 +36°C° 0 mm 5 mps 748 mmHg 49%
    13:00 +37°C° 0 mm 5 mps 747 mmHg 47%
    14:00 +36°C° 0 mm 6 mps 747 mmHg 50%
    15:00 +35°C° 0 mm 6 mps 747 mmHg 53%
    16:00 +34°C° 0 mm 6 mps 746 mmHg 57%
    17:00 +33°C° 0 mm 6 mps 747 mmHg 63%
    18:00 +30°C° 0 mm 5 mps 747 mmHg 70%
    19:00 +29°C° 0 mm 4 mps 747 mmHg 76%
    20:00 +28°C° 0 mm 4 mps 748 mmHg 78%
    21:00 +28°C° 0 mm 4 mps 748 mmHg 79%
    22:00 +27°C° 0 mm 4 mps 749 mmHg 80%
    23:00 +27°C° 0.1 mm 4 mps 748 mmHg 82%

    Day after tomorrow, 25 September, Tuesday

    Time Temperature Precipitation Wind Pressure Humidity
    00:00 +27°C° 0.1 mm 4 mps 748 mmHg 83%
    01:00 +26°C° 0.1 mm 3 mps 748 mmHg 85%
    02:00 +26°C° 0 mm 3 mps 748 mmHg 86%
    03:00 +26°C° 0 mm 3 mps 748 mmHg 88%
    04:00 +26°C° 0 mm 3 mps 747 mmHg 89%
    05:00 +26°C° 0 mm 3 mps 748 mmHg 86%
    06:00 +27°C° 0 mm 4 mps 748 mmHg 84%
    07:00 +28°C° 0 mm 4 mps 748 mmHg 81%
    08:00 +30°C° 0 mm 5 mps 749 mmHg 72%
    09:00 +33°C° 0 mm 5 mps 749 mmHg 62%
    10:00 +35°C° 0 mm 6 mps 749 mmHg 53%
    11:00 +36°C° 0 mm 6 mps 749 mmHg 49%
    12:00 +38°C° 0 mm 7 mps 749 mmHg 45%
    13:00 +39°C° 0 mm 7 mps 748 mmHg 41%
    14:00 +38°C° 0 mm 7 mps 748 mmHg 44%
    15:00 +36°C° 0 mm 7 mps 747 mmHg 47%
    16:00 +35°C° 0 mm 7 mps 747 mmHg 51%
    17:00 +33°C° 0 mm 7 mps 747 mmHg 58%
    18:00 +32°C° 0 mm 6 mps 748 mmHg 66%
    19:00 +29°C° 0 mm 6 mps 748 mmHg 74%
    20:00 +28°C° 0 mm 5 mps 748 mmHg 76%
    21:00 +28°C° 0 mm 5 mps 749 mmHg 79%
    22:00 +27°C° 0 mm 5 mps 749 mmHg 82%
    23:00 +27°C° 0 mm 4 mps 749 mmHg 84%

    26 September, Wednesday

    Time Temperature Precipitation Wind Pressure Humidity
    00:00 +27°C° 0 mm 4 mps 748 mmHg 86%
    01:00 +26°C° 0 mm 4 mps 748 mmHg 87%
    02:00 +26°C° 0 mm 3 mps 748 mmHg 88%
    03:00 +26°C° 0 mm 3 mps 748 mmHg 89%
    04:00 +25°C° 0 mm 3 mps 747 mmHg 90%
    05:00 +26°C° 0 mm 3 mps 747 mmHg 87%
    06:00 +26°C° 0 mm 4 mps 748 mmHg 84%
    07:00 +27°C° 0 mm 4 mps 748 mmHg 81%
    08:00 +29°C° 0 mm 5 mps 748 mmHg 70%
    09:00 +32°C° 0 mm 5 mps 749 mmHg 60%
    10:00 +35°C° 0 mm 6 mps 749 mmHg 49%
    11:00 +35°C° 0 mm 6 mps 748 mmHg 48%
    12:00 +36°C° 0 mm 6 mps 748 mmHg 47%
    13:00 +38°C° 0 mm 6 mps 747 mmHg 46%
    14:00 +36°C° 0.1 mm 7 mps 747 mmHg 48%
    15:00 +35°C° 0.1 mm 7 mps 747 mmHg 49%
    16:00 +35°C° 0.1 mm 7 mps 746 mmHg 51%
    17:00 +33°C° 0 mm 6 mps 747 mmHg 58%
    18:00 +30°C° 0 mm 6 mps 747 mmHg 65%
    19:00 +29°C° 0 mm 5 mps 747 mmHg 72%
    20:00 +28°C° 0 mm 5 mps 747 mmHg 76%
    21:00 +28°C° 0 mm 5 mps 748 mmHg 79%
    22:00 +27°C° 0 mm 4 mps 748 mmHg 83%
    23:00 +27°C° 0 mm 4 mps 748 mmHg 85%

    27 September, Thursday

    Time Temperature Precipitation Wind Pressure Humidity
    00:00 +27°C° 0 mm 4 mps 747 mmHg 87%
    01:00 +26°C° 0 mm 4 mps 747 mmHg 88%
    02:00 +26°C° 0 mm 4 mps 747 mmHg 89%
    03:00 +26°C° 0 mm 3 mps 747 mmHg 90%
    04:00 +25°C° 0 mm 3 mps 746 mmHg 90%
    05:00 +26°C° 0 mm 3 mps 747 mmHg 87%
    06:00 +26°C° 0 mm 3 mps 747 mmHg 84%
    07:00 +27°C° 0 mm 3 mps 747 mmHg 80%
    08:00 +29°C° 0 mm 4 mps 748 mmHg 68%
    09:00 +32°C° 0 mm 5 mps 748 mmHg 56%
    10:00 +34°C° 0 mm 5 mps 748 mmHg 44%
    11:00 +35°C° 0 mm 5 mps 748 mmHg 43%
    12:00 +36°C° 0 mm 5 mps 747 mmHg 41%
    13:00 +37°C° 0 mm 5 mps 747 mmHg 39%
    14:00 +36°C° 0 mm 6 mps 746 mmHg 44%
    15:00 +35°C° 0 mm 6 mps 746 mmHg 49%
    16:00 +35°C° 0 mm 6 mps 746 mmHg 55%
    17:00 +33°C° 0.1 mm 6 mps 746 mmHg 63%
    18:00 +30°C° 0.1 mm 5 mps 746 mmHg 71%
    19:00 +28°C° 0.1 mm 5 mps 747 mmHg 79%
    20:00 +28°C° 0 mm 4 mps 747 mmHg 82%
    21:00 +27°C° 0 mm 4 mps 748 mmHg 84%
    22:00 +27°C° 0 mm 4 mps 748 mmHg 87%
    23:00 +26°C° 0 mm 3 mps 748 mmHg 88%

    28 September, Friday

    Time Temperature Precipitation Wind Pressure Humidity
    00:00 +26°C° 0 mm 3 mps 747 mmHg 89%
    01:00 +26°C° 0 mm 3 mps 747 mmHg 90%
    02:00 +26°C° 0 mm 3 mps 747 mmHg 91%
    03:00 +25°C° 0 mm 3 mps 747 mmHg 91%
    04:00 +25°C° 0 mm 3 mps 747 mmHg 92%
    05:00 +26°C° 0 mm 3 mps 747 mmHg 89%
    06:00 +27°C° 0 mm 3 mps 748 mmHg 86%
    07:00 +27°C° 0 mm 3 mps 748 mmHg 82%
    08:00 +30°C° 0.1 mm 4 mps 748 mmHg 72%
    09:00 +33°C° 0.1 mm 5 mps 748 mmHg 61%
    10:00 +35°C° 0.1 mm 6 mps 748 mmHg 51%
    11:00 +36°C° 0.1 mm 6 mps 748 mmHg 50%
    12:00 +36°C° 0.1 mm 7 mps 748 mmHg 48%
    13:00 +38°C° 0.1 mm 7 mps 747 mmHg 47%
    14:00 +36°C° 0.1 mm 7 mps 747 mmHg 48%
    15:00 +35°C° 0.1 mm 7 mps 746 mmHg 48%
    16:00 +34°C° 0.1 mm 7 mps 746 mmHg 49%
    17:00 +32°C° 0 mm 6 mps 747 mmHg 57%
    18:00 +29°C° 0 mm 5 mps 747 mmHg 65%
    19:00 +27°C° 0 mm 5 mps 747 mmHg 73%
    20:00 +27°C° 0 mm 4 mps 748 mmHg 76%
    21:00 +26°C° 0 mm 4 mps 748 mmHg 79%
    22:00 +26°C° 0 mm 4 mps 748 mmHg 83%
    23:00 +25°C° 0 mm 3 mps 748 mmHg 84%
    Show more